When you browse on this site, cookies collect data to enhance your experience and personalize the content and advertising you see.
Visit our Privacy Policy to learn more. By continuing to use the site, you agree to this use of cookies and data.
  • In Austria
  • List of Countries
  • For 7 days
  • Water Temperature
  • Satellite Maps
  • Weather Map
  • News
  • Weather Widgets
  • user-avatar
    Login

    Hourly Weather Fakuoka

    Today, 19 April, Friday

    Time Temperature Precipitation Wind Pressure Humidity
    00:00 +15°C° 0 mm 1 mps 740 mmHg 70%
    01:00 +15°C° 0 mm 1 mps 740 mmHg 73%
    02:00 +14°C° 0 mm 1 mps 740 mmHg 75%
    03:00 +14°C° 0 mm 1 mps 740 mmHg 78%
    04:00 +14°C° 0 mm 1 mps 740 mmHg 80%
    05:00 +14°C° 0 mm 1 mps 740 mmHg 81%
    06:00 +13°C° 0 mm 0 mps 740 mmHg 82%
    07:00 +15°C° 0 mm 1 mps 741 mmHg 75%
    08:00 +18°C° 0 mm 1 mps 741 mmHg 68%
    09:00 +20°C° 0 mm 1 mps 741 mmHg 60%
    10:00 +21°C° 0 mm 1 mps 741 mmHg 57%
    11:00 +21°C° 0 mm 2 mps 741 mmHg 53%
    12:00 +23°C° 0 mm 2 mps 742 mmHg 49%
    13:00 +23°C° 0 mm 2 mps 741 mmHg 50%
    14:00 +23°C° 0 mm 2 mps 741 mmHg 50%
    15:00 +22°C° 0 mm 3 mps 741 mmHg 50%
    16:00 +21°C° 0 mm 3 mps 741 mmHg 55%
    17:00 +20°C° 0 mm 3 mps 741 mmHg 59%
    18:00 +19°C° 0 mm 3 mps 740 mmHg 64%
    19:00 +17°C° 0 mm 3 mps 740 mmHg 68%
    20:00 +16°C° 0 mm 3 mps 741 mmHg 72%
    21:00 +14°C° 0 mm 3 mps 741 mmHg 76%
    22:00 +14°C° 0 mm 2 mps 741 mmHg 76%
    23:00 +14°C° 0 mm 2 mps 741 mmHg 76%

    Tomorrow, 20 April, Saturday

    Time Temperature Precipitation Wind Pressure Humidity
    00:00 +14°C° 0 mm 2 mps 741 mmHg 76%
    01:00 +14°C° 0 mm 2 mps 741 mmHg 77%
    02:00 +13°C° 0 mm 2 mps 741 mmHg 77%
    03:00 +13°C° 0 mm 2 mps 741 mmHg 77%
    04:00 +13°C° 0 mm 2 mps 741 mmHg 78%
    05:00 +13°C° 0 mm 2 mps 741 mmHg 78%
    06:00 +13°C° 0 mm 1 mps 741 mmHg 78%
    07:00 +15°C° 0 mm 1 mps 741 mmHg 70%
    08:00 +18°C° 0 mm 1 mps 741 mmHg 62%
    09:00 +20°C° 0 mm 1 mps 741 mmHg 54%
    10:00 +22°C° 0 mm 1 mps 741 mmHg 50%
    11:00 +24°C° 0 mm 1 mps 741 mmHg 45%
    12:00 +26°C° 0 mm 1 mps 741 mmHg 40%
    13:00 +26°C° 0 mm 2 mps 741 mmHg 40%
    14:00 +26°C° 0 mm 2 mps 741 mmHg 40%
    15:00 +26°C° 0 mm 2 mps 740 mmHg 40%
    16:00 +24°C° 0 mm 2 mps 740 mmHg 45%
    17:00 +23°C° 0 mm 2 mps 740 mmHg 49%
    18:00 +21°C° 0 mm 2 mps 740 mmHg 54%
    19:00 +21°C° 0 mm 1 mps 740 mmHg 58%
    20:00 +20°C° 0 mm 1 mps 740 mmHg 62%
    21:00 +16°C° 0 mm 0 mps 741 mmHg 66%
    22:00 +18°C° 0 mm 1 mps 740 mmHg 68%
    23:00 +18°C° 0 mm 1 mps 740 mmHg 69%

    Day after tomorrow, 21 April, Sunday

    Time Temperature Precipitation Wind Pressure Humidity
    00:00 +16°C° 0 mm 1 mps 740 mmHg 71%
    01:00 +16°C° 0 mm 1 mps 740 mmHg 73%
    02:00 +16°C° 0 mm 1 mps 740 mmHg 74%
    03:00 +15°C° 0 mm 1 mps 740 mmHg 76%
    04:00 +15°C° 0 mm 1 mps 740 mmHg 77%
    05:00 +14°C° 0 mm 0 mps 740 mmHg 79%
    06:00 +13°C° 0 mm 0 mps 740 mmHg 80%
    07:00 +15°C° 0 mm 0 mps 740 mmHg 70%
    08:00 +17°C° 0 mm 0 mps 740 mmHg 61%
    09:00 +21°C° 0 mm 1 mps 741 mmHg 52%
    10:00 +23°C° 0 mm 1 mps 741 mmHg 46%
    11:00 +25°C° 0 mm 1 mps 741 mmHg 40%
    12:00 +26°C° 0 mm 1 mps 741 mmHg 34%
    13:00 +26°C° 0 mm 1 mps 740 mmHg 34%
    14:00 +27°C° 0 mm 1 mps 740 mmHg 34%
    15:00 +27°C° 0 mm 2 mps 739 mmHg 35%
    16:00 +25°C° 0 mm 2 mps 739 mmHg 40%
    17:00 +24°C° 0 mm 2 mps 739 mmHg 46%
    18:00 +21°C° 0 mm 2 mps 739 mmHg 51%
    19:00 +20°C° 0 mm 2 mps 740 mmHg 55%
    20:00 +19°C° 0 mm 2 mps 740 mmHg 58%
    21:00 +18°C° 0 mm 2 mps 740 mmHg 62%
    22:00 +18°C° 0 mm 1 mps 740 mmHg 62%
    23:00 +18°C° 0 mm 1 mps 740 mmHg 63%

    22 April, Monday

    Time Temperature Precipitation Wind Pressure Humidity
    00:00 +16°C° 0 mm 1 mps 740 mmHg 63%
    01:00 +16°C° 0 mm 1 mps 740 mmHg 64%
    02:00 +16°C° 0 mm 1 mps 740 mmHg 65%
    03:00 +16°C° 0 mm 1 mps 740 mmHg 65%
    04:00 +15°C° 0 mm 1 mps 740 mmHg 67%
    05:00 +15°C° 0 mm 1 mps 740 mmHg 68%
    06:00 +15°C° 0 mm 1 mps 740 mmHg 69%
    07:00 +18°C° 0 mm 1 mps 740 mmHg 64%
    08:00 +20°C° 0 mm 1 mps 740 mmHg 58%
    09:00 +22°C° 0 mm 1 mps 741 mmHg 52%
    10:00 +24°C° 0 mm 1 mps 741 mmHg 48%
    11:00 +26°C° 0 mm 1 mps 741 mmHg 43%
    12:00 +28°C° 0 mm 1 mps 741 mmHg 38%
    13:00 +27°C° 0 mm 1 mps 741 mmHg 39%
    14:00 +27°C° 0 mm 2 mps 740 mmHg 39%
    15:00 +26°C° 0 mm 2 mps 740 mmHg 40%
    16:00 +25°C° 0 mm 2 mps 740 mmHg 45%
    17:00 +24°C° 0 mm 2 mps 740 mmHg 50%
    18:00 +23°C° 0 mm 2 mps 740 mmHg 54%
    19:00 +21°C° 0.1 mm 2 mps 740 mmHg 58%
    20:00 +21°C° 0.1 mm 1 mps 741 mmHg 61%
    21:00 +20°C° 0.1 mm 1 mps 741 mmHg 64%
    22:00 +20°C° 0 mm 1 mps 741 mmHg 64%
    23:00 +18°C° 0 mm 0 mps 741 mmHg 65%

    23 April, Tuesday

    Time Temperature Precipitation Wind Pressure Humidity
    00:00 +18°C° 0 mm 0 mps 741 mmHg 65%
    01:00 +18°C° 0 mm 0 mps 741 mmHg 66%
    02:00 +17°C° 0 mm 0 mps 740 mmHg 67%
    03:00 +17°C° 0 mm 0 mps 740 mmHg 68%
    04:00 +17°C° 0 mm 0 mps 740 mmHg 68%
    05:00 +17°C° 0 mm 0 mps 740 mmHg 68%
    06:00 +17°C° 0 mm 0 mps 740 mmHg 67%
    07:00 +17°C° 0.2 mm 0 mps 740 mmHg 68%
    08:00 +19°C° 0.2 mm 1 mps 741 mmHg 69%
    09:00 +20°C° 0.2 mm 1 mps 741 mmHg 69%
    10:00 +21°C° 0.1 mm 1 mps 741 mmHg 65%
    11:00 +22°C° 0.1 mm 1 mps 741 mmHg 61%
    12:00 +23°C° 0.1 mm 1 mps 741 mmHg 57%
    13:00 +24°C° 0 mm 1 mps 740 mmHg 53%
    14:00 +24°C° 0 mm 1 mps 740 mmHg 50%
    15:00 +25°C° 0 mm 1 mps 740 mmHg 46%
    16:00 +24°C° 0 mm 1 mps 740 mmHg 51%
    17:00 +23°C° 0 mm 1 mps 739 mmHg 55%
    18:00 +22°C° 0 mm 1 mps 739 mmHg 59%
    19:00 +21°C° 0.3 mm 1 mps 740 mmHg 64%
    20:00 +21°C° 0.3 mm 1 mps 740 mmHg 69%
    21:00 +18°C° 0.3 mm 0 mps 740 mmHg 73%
    22:00 +20°C° 0.2 mm 1 mps 740 mmHg 75%
    23:00 +20°C° 0.2 mm 1 mps 739 mmHg 77%

    24 April, Wednesday

    Time Temperature Precipitation Wind Pressure Humidity
    00:00 +20°C° 0.2 mm 1 mps 739 mmHg 79%
    01:00 +20°C° 0.1 mm 1 mps 738 mmHg 80%
    02:00 +20°C° 0.1 mm 1 mps 738 mmHg 80%
    03:00 +18°C° 0.1 mm 2 mps 737 mmHg 81%
    04:00 +19°C° 0.8 mm 1 mps 737 mmHg 82%
    05:00 +19°C° 0.8 mm 1 mps 737 mmHg 84%
    06:00 +19°C° 0.8 mm 1 mps 737 mmHg 85%
    07:00 +20°C° 1.4 mm 1 mps 737 mmHg 85%
    08:00 +20°C° 1.4 mm 1 mps 737 mmHg 84%
    09:00 +20°C° 1.4 mm 1 mps 737 mmHg 84%
    10:00 +21°C° 0.2 mm 2 mps 736 mmHg 77%
    11:00 +24°C° 0.2 mm 3 mps 736 mmHg 69%
    12:00 +27°C° 0.2 mm 4 mps 736 mmHg 62%
    13:00 +27°C° 0.4 mm 4 mps 735 mmHg 63%
    14:00 +27°C° 0.4 mm 5 mps 735 mmHg 63%
    15:00 +27°C° 0.4 mm 5 mps 735 mmHg 64%
    16:00 +26°C° 0.6 mm 5 mps 735 mmHg 69%
    17:00 +25°C° 0.6 mm 4 mps 735 mmHg 75%
    18:00 +23°C° 0.6 mm 4 mps 734 mmHg 80%
    19:00 +22°C° 0.1 mm 3 mps 735 mmHg 83%
    20:00 +22°C° 0.1 mm 3 mps 735 mmHg 85%
    21:00 +21°C° 0.1 mm 2 mps 735 mmHg 88%
    22:00 +21°C° 0.1 mm 2 mps 735 mmHg 89%
    23:00 +21°C° 0.1 mm 2 mps 735 mmHg 89%
    Show more